| time (UTC) | temp F | wind direction | speed knots | gust knots | rain 1hr in | rain 24hr in | rain mn in | humidity % | barometer mb |
| 20260504050312 | 65 | 116 | 0.9 | 0.9 | 0.00 | 0.00 | 0.00 | 75 | 1019.8 |
| 20260504045808 | 65 | 54 | 0.9 | 2.6 | 0.00 | 0.00 | 0.00 | 74 | 1019.7 |
| 20260504045304 | 65 | 358 | 3.5 | 3.5 | 0.00 | 0.00 | 0.00 | 75 | 1019.8 |
| 20260504044800 | 65 | 148 | 0.9 | 0.9 | 0.00 | 0.00 | 0.00 | 75 | 1019.7 |
| 20260504044258 | 65 | 89 | 1.7 | 1.7 | 0.00 | 0.00 | 0.00 | 76 | 1019.8 |
| 20260504043755 | 64 | 100 | 0.9 | 1.7 | 0.00 | 0.00 | 0.00 | 77 | 1019.7 |
| 20260504043252 | 64 | 76 | 0.9 | 1.7 | 0.00 | 0.00 | 0.00 | 78 | 1019.7 |
| 20260504042750 | 64 | 73 | 0.9 | 2.6 | 0.00 | 0.00 | 0.00 | 79 | 1019.6 |
| 20260504042245 | 62 | 98 | 0.9 | 1.7 | 0.00 | 0.00 | 0.00 | 81 | 1019.7 |
| 20260504041741 | 61 | 133 | 0.0 | 0.0 | 0.00 | 0.00 | 0.00 | 83 | 1019.7 |
| 20260504041237 | 60 | 179 | 0.0 | 1.7 | 0.00 | 0.00 | 0.00 | 84 | 1019.8 |
| 20260504040728 | 61 | 152 | 0.0 | 0.0 | 0.00 | 0.00 | 0.00 | 83 | 1019.3 |
| 20260504040226 | 60 | 152 | 0.0 | 0.0 | 0.00 | 0.00 | 0.00 | 83 | 1019.4 |
| 20260504035722 | 61 | 152 | 0.0 | 0.0 | 0.00 | 0.00 | 0.00 | 83 | 1019.3 |
| 20260504035219 | 62 | 152 | 0.0 | 0.0 | 0.00 | 0.00 | 0.00 | 80 | 1019.5 |
| 20260504034716 | 62 | 152 | 0.0 | 0.0 | 0.00 | 0.00 | 0.00 | 79 | 1019.5 |
| 20260504034213 | 63 | 152 | 0.0 | 0.0 | 0.00 | 0.00 | 0.00 | 79 | 1019.5 |
| 20260504033706 | 63 | 152 | 0.0 | 0.0 | 0.00 | 0.00 | 0.00 | 79 | 1019.4 |
| 20260504033203 | 62 | 152 | 0.0 | 0.0 | 0.00 | 0.00 | 0.00 | 79 | 1019.5 |
| 20260504032659 | 62 | 152 | 0.0 | 0.0 | 0.00 | 0.00 | 0.00 | 79 | 1019.6 |
| 20260504032157 | 63 | 152 | 0.0 | 0.0 | 0.00 | 0.00 | 0.00 | 79 | 1019.6 |
| 20260504031653 | 63 | 152 | 0.0 | 0.0 | 0.00 | 0.00 | 0.00 | 78 | 1019.7 |
| 20260504031149 | 63 | 137 | 0.0 | 0.0 | 0.00 | 0.00 | 0.00 | 78 | 1019.5 |
| 20260504030646 | 62 | 128 | 0.0 | 0.0 | 0.00 | 0.00 | 0.00 | 79 | 1019.6 |
| 20260504030138 | 62 | 163 | 0.0 | 0.0 | 0.00 | 0.00 | 0.00 | 78 | 1019.7 |
| 20260504025634 | 63 | 163 | 0.0 | 0.0 | 0.00 | 0.00 | 0.00 | 77 | 1019.6 |
| 20260504025131 | 64 | 163 | 0.0 | 0.0 | 0.00 | 0.00 | 0.00 | 77 | 1019.6 |
| 20260504024628 | 64 | 147 | 0.0 | 0.0 | 0.00 | 0.00 | 0.00 | 77 | 1019.6 |
| 20260504024125 | 63 | 120 | 0.0 | 0.0 | 0.00 | 0.00 | 0.00 | 77 | 1019.7 |
| 20260504023621 | 63 | 142 | 0.0 | 0.0 | 0.00 | 0.00 | 0.00 | 77 | 1019.6 |
| 20260504023116 | 64 | 140 | 0.0 | 0.0 | 0.00 | 0.00 | 0.00 | 76 | 1019.4 |
| 20260504022613 | 64 | 136 | 0.0 | 0.0 | 0.00 | 0.00 | 0.00 | 75 | 1019.4 |
| 20260504022109 | 64 | 139 | 0.0 | 0.0 | 0.00 | 0.00 | 0.00 | 74 | 1019.5 |
| 20260504021607 | 65 | 133 | 0.0 | 0.0 | 0.00 | 0.00 | 0.00 | 74 | 1019.4 |
| 20260504021104 | 65 | 158 | 0.0 | 0.0 | 0.00 | 0.00 | 0.00 | 73 | 1019.2 |
| 20260504020600 | 65 | 157 | 0.0 | 0.0 | 0.00 | 0.00 | 0.00 | 73 | 1019.3 |
| 20260504020057 | 66 | 180 | 0.0 | 0.9 | 0.00 | 0.00 | 0.00 | 72 | 1019.3 |
| 20260504015553 | 66 | 135 | 0.0 | 0.0 | 0.00 | 0.00 | 0.00 | 72 | 1019.3 |
| 20260504015049 | 66 | 115 | 0.0 | 0.0 | 0.00 | 0.00 | 0.00 | 71 | 1019.2 |
| 20260504014546 | 66 | 166 | 0.9 | 1.7 | 0.00 | 0.00 | 0.00 | 71 | 1019.0 |
| 20260504014043 | 66 | 147 | 0.0 | 0.0 | 0.00 | 0.00 | 0.00 | 70 | 1019.1 |
| 20260504013541 | 67 | 158 | 0.0 | 0.9 | 0.00 | 0.00 | 0.00 | 69 | 1018.8 |
| 20260504013037 | 67 | 175 | 0.0 | 0.0 | 0.00 | 0.00 | 0.00 | 69 | 1018.9 |
| 20260504012530 | 67 | 139 | 0.0 | 0.0 | 0.00 | 0.00 | 0.00 | 68 | 1018.8 |
| 20260504012027 | 67 | 144 | 0.0 | 0.9 | 0.00 | 0.00 | 0.00 | 67 | 1018.7 |
| 20260504011523 | 68 | 166 | 0.9 | 0.9 | 0.00 | 0.00 | 0.00 | 67 | 1018.7 |
| 20260504011019 | 68 | 125 | 0.0 | 0.0 | 0.00 | 0.00 | 0.00 | 66 | 1018.7 |
| 20260504010515 | 68 | 137 | 0.0 | 0.9 | 0.00 | 0.00 | 0.00 | 65 | 1018.7 |
| 20260504010011 | 68 | 150 | 0.0 | 0.9 | 0.00 | 0.00 | 0.00 | 65 | 1018.6 |
| 20260504005508 | 68 | 147 | 0.0 | 0.9 | 0.00 | 0.00 | 0.00 | 64 | 1018.5 |
| 20260504005006 | 68 | 132 | 0.0 | 0.9 | 0.00 | 0.00 | 0.00 | 64 | 1018.5 |
| 20260504004503 | 68 | 129 | 0.9 | 0.9 | 0.00 | 0.00 | 0.00 | 63 | 1018.4 |
| 20260504004000 | 69 | 181 | 0.0 | 0.9 | 0.00 | 0.00 | 0.00 | 61 | 1018.5 |
| 20260504003456 | 69 | 131 | 0.0 | 0.0 | 0.00 | 0.00 | 0.00 | 61 | 1018.6 |
| 20260504002953 | 69 | 119 | 0.0 | 1.7 | 0.00 | 0.00 | 0.00 | 60 | 1018.5 |
| 20260504002450 | 69 | 101 | 0.0 | 1.7 | 0.00 | 0.00 | 0.00 | 59 | 1018.4 |
| 20260504001947 | 70 | 137 | 0.0 | 1.7 | 0.00 | 0.00 | 0.00 | 56 | 1018.1 |
| 20260504001445 | 70 | 142 | 0.0 | 1.7 | 0.00 | 0.00 | 0.00 | 56 | 1018.3 |
| 20260504000942 | 70 | 102 | 0.0 | 0.0 | 0.00 | 0.00 | 0.00 | 55 | 1018.3 |
| 20260504000439 | 70 | 107 | 0.0 | 2.6 | 0.00 | 0.00 | 0.00 | 54 | 1018.1 |
| 20260503235936 | 70 | 94 | 0.0 | 1.7 | 0.00 | 0.00 | 0.00 | 52 | 1018.3 |
| 20260503235433 | 71 | 148 | 1.7 | 2.6 | 0.00 | 0.00 | 0.00 | 52 | 1018.2 |
| 20260503234931 | 71 | 88 | 1.7 | 2.6 | 0.00 | 0.00 | 0.00 | 52 | 1018.1 |
| 20260503234428 | 71 | 152 | 1.7 | 2.6 | 0.00 | 0.00 | 0.00 | 53 | 1018.3 |
| 20260503233926 | 71 | 110 | 0.0 | 1.7 | 0.00 | 0.00 | 0.00 | 52 | 1018.2 |
| 20260503233422 | 72 | 126 | 1.7 | 5.2 | 0.00 | 0.00 | 0.00 | 51 | 1018.4 |
| 20260503232919 | 72 | 165 | 0.9 | 5.2 | 0.00 | 0.00 | 0.00 | 51 | 1018.3 |
| 20260503232416 | 72 | 168 | 0.9 | 2.6 | 0.00 | 0.00 | 0.00 | 49 | 1018.3 |
| 20260503231914 | 72 | 162 | 1.7 | 3.5 | 0.00 | 0.00 | 0.00 | 50 | 1018.2 |
| 20260503231411 | 73 | 37 | 0.9 | 2.6 | 0.00 | 0.00 | 0.00 | 48 | 1018.4 |
| 20260503230907 | 73 | 206 | 0.9 | 2.6 | 0.00 | 0.00 | 0.00 | 49 | 1018.4 |
| 20260503230403 | 72 | 133 | 0.0 | 3.5 | 0.00 | 0.00 | 0.00 | 48 | 1018.4 |
| 20260503225901 | 73 | 160 | 0.9 | 2.6 | 0.00 | 0.00 | 0.00 | 48 | 1018.2 |
| 20260503225357 | 73 | 133 | 3.5 | 6.1 | 0.00 | 0.00 | 0.00 | 48 | 1018.3 |
| 20260503224853 | 73 | 110 | 3.5 | 3.5 | 0.00 | 0.00 | 0.00 | 48 | 1018.3 |
| 20260503224351 | 73 | 165 | 2.6 | 3.5 | 0.00 | 0.00 | 0.00 | 48 | 1018.3 |
| 20260503223848 | 73 | 115 | 2.6 | 6.1 | 0.00 | 0.00 | 0.00 | 47 | 1018.3 |
| 20260503223346 | 73 | 143 | 3.5 | 5.2 | 0.00 | 0.00 | 0.00 | 47 | 1018.2 |
| 20260503222841 | 74 | 103 | 2.6 | 6.1 | 0.00 | 0.00 | 0.00 | 48 | 1018.3 |
| 20260503222340 | 74 | 138 | 0.9 | 7.0 | 0.00 | 0.00 | 0.00 | 50 | 1018.2 |
| 20260503221838 | 74 | 75 | 3.5 | 7.0 | 0.00 | 0.00 | 0.00 | 49 | 1018.3 |
| 20260503221337 | 75 | 143 | 1.7 | 3.5 | 0.00 | 0.00 | 0.00 | 46 | 1018.3 |
| 20260503220832 | 78 | 185 | 0.9 | 1.7 | 0.00 | 0.00 | 0.00 | 36 | 1018.3 |
| 20260503220329 | 77 | 200 | 0.9 | 0.9 | 0.00 | 0.00 | 0.00 | 37 | 1018.3 |
| 20260503215826 | 77 | 51 | 1.7 | 3.5 | 0.00 | 0.00 | 0.00 | 35 | 1018.3 |
| 20260503215323 | 77 | 242 | 2.6 | 3.5 | 0.00 | 0.00 | 0.00 | 34 | 1018.3 |
| 20260503214821 | 77 | 357 | 2.6 | 3.5 | 0.00 | 0.00 | 0.00 | 34 | 1018.1 |
| 20260503214318 | 78 | 337 | 1.7 | 6.1 | 0.00 | 0.00 | 0.00 | 35 | 1018.4 |
| 20260503213815 | 77 | 336 | 3.5 | 3.5 | 0.00 | 0.00 | 0.00 | 35 | 1018.4 |
| 20260503213313 | 78 | 171 | 0.0 | 0.9 | 0.00 | 0.00 | 0.00 | 34 | 1018.2 |
| 20260503212804 | 77 | 160 | 0.0 | 3.5 | 0.00 | 0.00 | 0.00 | 35 | 1018.6 |
| 20260503212304 | 78 | 8 | 2.6 | 3.5 | 0.00 | 0.00 | 0.00 | 34 | 1018.5 |
| 20260503211759 | 78 | 352 | 2.6 | 5.2 | 0.00 | 0.00 | 0.00 | 35 | 1018.6 |
| 20260503211255 | 77 | 75 | 0.9 | 1.7 | 0.00 | 0.00 | 0.00 | 36 | 1018.7 |
| 20260503210749 | 78 | 173 | 0.9 | 5.2 | 0.00 | 0.00 | 0.00 | 37 | 1018.7 |
| 20260503210248 | 78 | 352 | 3.5 | 5.2 | 0.00 | 0.00 | 0.00 | 34 | 1018.8 |
| 20260503205743 | 78 | 158 | 0.0 | 1.7 | 0.00 | 0.00 | 0.00 | 37 | 1018.6 |
| 20260503205239 | 78 | 255 | 1.7 | 1.7 | 0.00 | 0.00 | 0.00 | 33 | 1018.8 |
| 20260503204735 | 78 | 165 | 0.9 | 2.6 | 0.00 | 0.00 | 0.00 | 34 | 1018.5 |
| 20260503204233 | 77 | 46 | 2.6 | 6.1 | 0.00 | 0.00 | 0.00 | 34 | 1018.8 |
| 20260503203730 | 77 | 16 | 3.5 | 3.5 | 0.00 | 0.00 | 0.00 | 33 | 1018.9 |
| 20260503203228 | 77 | 335 | 1.7 | 5.2 | 0.00 | 0.00 | 0.00 | 34 | 1019.2 |
| 20260503202725 | 78 | 348 | 1.7 | 3.5 | 0.00 | 0.00 | 0.00 | 34 | 1019.2 |
| 20260503202223 | 78 | 342 | 1.7 | 5.2 | 0.00 | 0.00 | 0.00 | 36 | 1019.2 |
| 20260503201721 | 78 | 170 | 0.9 | 3.5 | 0.00 | 0.00 | 0.00 | 34 | 1019.2 |
| 20260503201218 | 78 | 76 | 1.7 | 2.6 | 0.00 | 0.00 | 0.00 | 33 | 1019.1 |
| 20260503200714 | 77 | 350 | 1.7 | 2.6 | 0.00 | 0.00 | 0.00 | 34 | 1019.3 |
| 20260503200211 | 76 | 14 | 0.0 | 2.6 | 0.00 | 0.00 | 0.00 | 35 | 1019.3 |
| 20260503195708 | 76 | 5 | 3.5 | 3.5 | 0.00 | 0.00 | 0.00 | 34 | 1019.5 |
| 20260503195205 | 76 | 346 | 4.3 | 7.0 | 0.00 | 0.00 | 0.00 | 35 | 1019.6 |
| 20260503194701 | 76 | 176 | 0.9 | 3.5 | 0.00 | 0.00 | 0.00 | 40 | 1019.8 |
| 20260503194156 | 77 | 326 | 3.5 | 6.1 | 0.00 | 0.00 | 0.00 | 34 | 1020.0 |
| 20260503193653 | 76 | 137 | 1.7 | 1.7 | 0.00 | 0.00 | 0.00 | 35 | 1020.0 |
| 20260503193150 | 76 | 7 | 1.7 | 6.1 | 0.00 | 0.00 | 0.00 | 35 | 1020.1 |
| 20260503192645 | 76 | 159 | 0.0 | 2.6 | 0.00 | 0.00 | 0.00 | 37 | 1020.1 |
| 20260503192140 | 77 | 222 | 1.7 | 2.6 | 0.00 | 0.00 | 0.00 | 37 | 1020.1 |
| 20260503191637 | 76 | 196 | 2.6 | 5.2 | 0.00 | 0.00 | 0.00 | 36 | 1020.2 |
| 20260503191135 | 76 | 103 | 1.7 | 3.5 | 0.00 | 0.00 | 0.00 | 35 | 1020.5 |
| 20260503190632 | 75 | 21 | 3.5 | 7.0 | 0.00 | 0.00 | 0.00 | 38 | 1020.5 |
| 20260503190129 | 76 | 11 | 1.7 | 3.5 | 0.00 | 0.00 | 0.00 | 35 | 1020.6 |
| 20260503185625 | 75 | 336 | 3.5 | 6.1 | 0.00 | 0.00 | 0.00 | 34 | 1020.7 |
| 20260503185120 | 76 | 337 | 3.5 | 6.1 | 0.00 | 0.00 | 0.00 | 33 | 1020.8 |
| 20260503184615 | 75 | 153 | 1.7 | 3.5 | 0.00 | 0.00 | 0.00 | 34 | 1020.9 |
| 20260503184112 | 75 | 24 | 0.9 | 6.1 | 0.00 | 0.00 | 0.00 | 35 | 1020.9 |
| 20260503183609 | 75 | 331 | 3.5 | 7.8 | 0.00 | 0.00 | 0.00 | 33 | 1020.9 |
| 20260503183106 | 75 | 336 | 5.2 | 6.1 | 0.00 | 0.00 | 0.00 | 32 | 1020.9 |
| 20260503182605 | 74 | 271 | 3.5 | 7.8 | 0.00 | 0.00 | 0.00 | 34 | 1021.0 |
| 20260503182102 | 75 | 1 | 3.5 | 7.0 | 0.00 | 0.00 | 0.00 | 32 | 1021.1 |
| 20260503181559 | 75 | 352 | 3.5 | 8.7 | 0.00 | 0.00 | 0.00 | 34 | 1021.0 |
| 20260503181055 | 75 | 6 | 4.3 | 6.1 | 0.00 | 0.00 | 0.00 | 33 | 1021.2 |
| 20260503180552 | 75 | 351 | 2.6 | 7.8 | 0.00 | 0.00 | 0.00 | 34 | 1021.0 |
| 20260503180050 | 75 | 326 | 4.3 | 7.0 | 0.00 | 0.00 | 0.00 | 36 | 1021.1 |
| 20260503175547 | 75 | 7 | 2.6 | 7.0 | 0.00 | 0.00 | 0.00 | 35 | 1021.2 |
| 20260503175044 | 74 | 43 | 4.3 | 8.7 | 0.00 | 0.00 | 0.00 | 34 | 1021.3 |
| 20260503174541 | 75 | 349 | 2.6 | 7.0 | 0.00 | 0.00 | 0.00 | 37 | 1021.1 |
| 20260503174037 | 75 | 46 | 1.7 | 5.2 | 0.00 | 0.00 | 0.00 | 36 | 1021.1 |
| 20260503173532 | 74 | 332 | 1.7 | 2.6 | 0.00 | 0.00 | 0.00 | 36 | 1021.1 |
| 20260503173029 | 74 | 311 | 6.1 | 7.8 | 0.00 | 0.00 | 0.00 | 35 | 1021.4 |
| 20260503172527 | 74 | 190 | 3.5 | 7.8 | 0.00 | 0.00 | 0.00 | 40 | 1021.4 |
| 20260503172024 | 74 | 69 | 0.9 | 3.5 | 0.00 | 0.00 | 0.00 | 44 | 1021.4 |
| 20260503171520 | 74 | 333 | 5.2 | 7.0 | 0.00 | 0.00 | 0.00 | 37 | 1021.6 |
| 20260503171018 | 74 | 317 | 3.5 | 6.1 | 0.00 | 0.00 | 0.00 | 39 | 1021.5 |
| 20260503170514 | 74 | 24 | 2.6 | 5.2 | 0.00 | 0.00 | 0.00 | 38 | 1021.7 |
| 20260503150906 | 69 | 326 | 5.2 | 6.1 | 0.00 | 0.00 | 0.00 | 59 | 1022.3 |
| 20260503150403 | 68 | 350 | 2.6 | 3.5 | 0.00 | 0.00 | 0.00 | 59 | 1022.3 |
| 20260503131256 | 63 | 89 | 0.9 | 6.1 | 0.00 | 0.00 | 0.00 | 73 | 1021.6 |
| 20260503130753 | 62 | 349 | 0.9 | 3.5 | 0.00 | 0.00 | 0.00 | 75 | 1021.4 |
| 20260503130251 | 62 | 314 | 3.5 | 5.2 | 0.00 | 0.00 | 0.00 | 73 | 1021.4 |
| 20260503120217 | 59 | 329 | 2.6 | 3.5 | 0.00 | 0.00 | 0.00 | 82 | 1021.1 |
| 20260503110644 | 55 | 316 | 1.7 | 2.6 | 0.00 | 0.00 | 0.00 | 87 | 1020.7 |
| 20260503110141 | 55 | 315 | 0.9 | 1.7 | 0.00 | 0.00 | 0.00 | 87 | 1020.7 |
| 20260503100108 | 56 | 326 | 0.0 | 0.9 | 0.00 | 0.00 | 0.00 | 81 | 1020.3 |
| 20260503081457 | 60 | 25 | 0.0 | 0.9 | 0.00 | 0.00 | 0.00 | 74 | 1019.9 |
| 20260503080954 | 60 | 121 | 0.0 | 2.6 | 0.00 | 0.00 | 0.00 | 73 | 1019.6 |
| 20260503080451 | 59 | 145 | 0.0 | 2.6 | 0.00 | 0.00 | 0.00 | 74 | 1019.4 |
| 20260503072927 | 59 | 332 | 0.0 | 2.6 | 0.00 | 0.00 | 0.00 | 74 | 1019.6 |
| 20260503072425 | 59 | 146 | 0.0 | 0.0 | 0.00 | 0.00 | 0.00 | 74 | 1019.6 |
| 20260503071922 | 60 | 154 | 0.0 | 1.7 | 0.00 | 0.00 | 0.00 | 73 | 1019.6 |
| 20260503071419 | 61 | 150 | 0.0 | 0.0 | 0.00 | 0.00 | 0.00 | 71 | 1019.6 |
| 20260503070915 | 61 | 251 | 0.9 | 1.7 | 0.00 | 0.00 | 0.00 | 69 | 1019.6 |
| 20260503070412 | 61 | 131 | 0.9 | 3.5 | 0.00 | 0.00 | 0.00 | 68 | 1019.5 |